This is the latest recevied weather packets stored in our database for station/object KQ7A. If no packets are shown the sender has not sent any weather packets the latest 10 day(s).
| Time | Temp. | Humidity | Pressure | Rain* | Wind** | Luminosity | Snow |
|---|---|---|---|---|---|---|---|
| 1778114447 | 25° C | 26% | 1020.4 hPa | 0 mm | - | 300 W/m² | - |
| 1778114143 | 25° C | 23% | 1020.3 hPa | 0 mm | - | 319 W/m² | - |
| 1778113838 | 25.56° C | 19% | 1020.4 hPa | 0 mm | - | 340 W/m² | - |
| 1778113535 | 25° C | 22% | 1020.5 hPa | 0 mm | - | 350 W/m² | - |
| 1778113230 | 24.44° C | 23% | 1020.3 hPa | 0 mm | - | 370 W/m² | - |
| 1778112927 | 24.44° C | 20% | 1020.3 hPa | 0 mm | - | 385 W/m² | - |
| 1778112620 | 24.44° C | 21% | 1020.4 hPa | 0 mm | - | 407 W/m² | - |
| 1778112315 | 25° C | 23% | 1020.4 hPa | 0 mm | - | 430 W/m² | - |
| 1778112011 | 25° C | 24% | 1020.5 hPa | 0 mm | - | 437 W/m² | - |
| 1778111709 | 25° C | 19% | 1020.5 hPa | 0 mm | - | 445 W/m² | - |
| 1778111404 | 25° C | 22% | 1020.3 hPa | 0 mm | - | 465 W/m² | - |
| 1778111102 | 24.44° C | 22% | 1020.4 hPa | 0 mm | - | 484 W/m² | - |
| 1778110799 | 25° C | 23% | 1020.6 hPa | 0 mm | - | 490 W/m² | - |
| 1778110495 | 24.44° C | 24% | 1020.4 hPa | 0 mm | - | 499 W/m² | - |
| 1778110192 | 24.44° C | 20% | 1020.6 hPa | 0 mm | - | 520 W/m² | - |
| 1778109888 | 24.44° C | 23% | 1020.6 hPa | 0 mm | - | 542 W/m² | - |
| 1778109584 | 24.44° C | 21% | 1020.7 hPa | 0 mm | - | 553 W/m² | - |
| 1778109282 | 25° C | 22% | 1020.7 hPa | 0 mm | - | 561 W/m² | - |
| 1778108979 | 25° C | 23% | 1021.1 hPa | 0 mm | - | 571 W/m² | - |
| 1778108675 | 25° C | 19% | 1020.8 hPa | 0 mm | - | 576 W/m² | - |
| 1778108372 | 24.44° C | 21% | 1020.9 hPa | 0 mm | - | 594 W/m² | - |
| 1778108069 | 24.44° C | 23% | 1020.7 hPa | 0 mm | - | 606 W/m² | - |
| 1778107766 | 23.89° C | 22% | 1020.8 hPa | 0 mm | - | 613 W/m² | - |
| 1778107463 | 24.44° C | 27% | 1020.9 hPa | 0 mm | - | 626 W/m² | - |
| 1778107160 | 24.44° C | 27% | 1020.9 hPa | 0 mm | - | 637 W/m² | - |
* Rain latest hour (hover to see other rain measurements)
** Current wind speed in m/s (hover to see current wind gust speed)